Location: Ch�cara Leonina
(19.9555°S, 43.9613°W)
Time: 18:22:47
(UTC+00:00)

Daily predictions for brighter satellites

Satellite Brightness Start Highest point End
(mag) Time Altitude Azimuth Time Altitude Azimuth Time Altitude Azimuth
Cosmos 968 Rocket 4.0 21:29:07 10° NNE 21:33:55 38° E 21:38:43 10° SE
Orbus 7S 3.3 21:33:12 10° WSW 21:35:57 89° N 21:41:38 10° ENE
Cosmos 1515 3.6 21:35:19 10° N 21:39:04 68° E 21:42:51 10° S
ERS-2 4.4 21:38:11 10° NNW 21:41:23 29° W 21:44:38 10° SW
SL-8 Rocket 4.4 21:36:58 10° S 21:43:17 72° W 21:49:31 10° N
Delta 198 3.1 21:40:43 10° WSW 21:44:20 71° NNW 21:48:10 10° ENE
Okean-O 3.7 21:42:22 10° SE 21:45:57 23° E 21:49:29 10° NNE
GPS 2-17 Rocket1 3.0 21:42:48 10° W 21:47:15 88° N 21:51:32 11° E
CZ-2C R/B 3.3 21:41:52 10° SSE 21:47:44 82° ENE 21:53:32 10° N
SME Rocket 3.0 21:44:51 10° NNE 21:48:29 55° ESE 21:52:36 10° S
APEX 3.4 21:45:00 10° N 21:48:39 63° ENE 21:53:18 10° SSE
Nadezhda 3 Rocket 4.0 21:43:55 10° N 21:50:12 74° E 21:56:29 10° S
Palapa B4 Rocket 3.1 21:44:45 10° W 21:50:13 86° N 21:53:47 13° E
DASH 2.8 21:43:26 10° WNW 21:52:44 71° NNE 21:55:16 12° ESE
H-2A R/B 2.4 21:50:12 10° SSE 21:55:16 44° E 22:00:23 10° N
Cosmos 2263 Rocket 2.6 21:50:50 10° NNW 21:56:23 69° WSW 22:02:02 10° S
CZ-2C R/B 3.8 21:51:44 10° N 21:56:41 45° W 22:01:40 10° SSW
ARIANE 5 R/B 4.2 21:52:59 10° NW 21:57:15 29° NNE 22:09:09 13° ENE
Ariane H10 4.5 21:51:44 10° NW 21:57:19 28° N 22:03:57 11° NE
Meteor 1-19 Rocket 4.1 21:52:36 10° N 21:58:07 86° E 22:03:35 10° S
Okean O Rocket 3.7 21:54:37 10° SSW 21:58:32 32° WSW 22:02:24 10° NW
Cosmos 1486 Rocket 4.0 21:56:28 10° N 22:01:45 68° ENE 22:07:04 10° SSE
Centaur D-1A AC-35 2.8 21:57:48 10° WSW 22:02:17 40° S 22:04:42 14° ESE
Cosmos 1763 Rocket 4.0 21:58:03 10° SSW 22:03:15 63° WNW 22:08:27 10° N
Atlas Centaur 2 2.4 21:57:47 10° WNW 22:05:03 86° SSW 22:10:20 12° ESE
YAOGAN 1 2.7 22:01:54 10° SSE 22:06:07 48° E 22:10:18 10° N
Cosmos 44 Rocket 4.1 22:03:37 10° NNE 22:07:51 28° ENE 22:11:58 10° SE
Milstar 3 4.3 21:56:47 10° NW 22:07:52 32° NNE 22:13:03 18° ENE
Cosmos 1544 3.1 22:05:10 10° S 22:08:47 81° W 22:12:23 10° N
Cosmos 1703 Rocket 3.5 22:11:33 10° N 22:15:46 56° E 22:20:04 10° SSE
Cosmos 1340 Rocket 3.6 22:13:08 10° SSE 22:16:47 30° E 22:17:47 26° ENE
deb Centaur AC-2 4.3 22:13:09 10° NW 22:18:18 60° NNE 22:20:46 26° E
OAO 3 Copernicus 4.4 22:15:11 10° WNW 22:20:17 76° SSW 22:24:18 17° SE
Aureole 2 Rocket 1.5 22:19:44 10° NNW 22:22:13 83° WSW 22:24:50 10° SSE
USA 81 4.0 22:19:07 10° S 22:24:23 60° E 22:29:34 10° NNE
USA 215 3.9 22:19:08 10° SSE 22:25:33 56° SW 22:31:55 10° NW
Cosmos 1821 Rocket 4.0 22:19:21 10° S 22:25:48 81° E 22:32:06 10° N
IRS-1C Rocket 4.3 22:21:36 10° S 22:26:53 74° WSW 22:32:07 10° NNW
ASTEX 1 3.3 22:24:14 10° N 22:29:08 81° E 22:34:08 10° S
Cosmos 1844 Rocket 3.2 22:24:18 10° NNE 22:29:19 35° ENE 22:34:23 10° SE
OAO 3 Rocket 3.9 22:25:21 10° SW 22:29:53 39° SSE 22:31:30 30° ESE
Helios 1A Rocket 3.1 22:26:15 10° SSE 22:30:15 46° E 22:34:10 10° N
Centaur AC-72 4.0 22:24:10 10° W 22:30:52 86° N 22:46:35 23° E
Cosmos 1354 Rocket 3.9 22:27:36 10° N 22:32:44 60° ENE 22:37:56 10° SSE
Cosmos 1339 Rocket 4.5 22:28:11 10° N 22:34:31 69° E 22:40:55 10° S
Cosmos 2239 Rocket 4.4 22:28:59 10° S 22:35:21 79° E 22:41:41 10° N
Okean 1-7 3.2 22:34:58 10° N 22:39:11 71° W 22:43:28 10° S
CZ-4 R/B 2.7 22:35:44 10° S 22:39:23 40° WSW 22:42:59 10° NW
Cosmos 1934 Rocket 4.0 22:33:35 10° S 22:39:32 52° E 22:42:54 25° NNE
Cosmos 1503 Rocket 3.9 22:34:24 10° NNW 22:39:34 88° ENE 22:44:51 10° SSE
Cosmos 540 Rocket 4.3 22:36:46 10° SSW 22:41:45 50° WNW 22:46:42 10° N
SL-16 R/B 3.1 22:39:31 10° SSW 22:44:56 47° WNW 22:50:20 10° N
HJ-1C 4.1 22:42:37 10° S 22:45:56 54° WSW 22:49:11 10° NNW
ISS -3.3 22:44:47 10° SW 22:48:01 58° WNW 22:48:01 58° WNW
ARGOS 3.2 22:43:38 10° S 22:49:04 78° WSW 22:54:28 10° NNW
Okean 3 4.3 22:53:20 38° SSE 22:53:20 38° SSE 22:56:08 10° S
SL-08 RB Rocket 3.6 22:50:08 10° S 22:54:39 86° W 22:59:07 10° NNW
GPS 2-18 Rocket1 3.4 22:51:42 10° W 22:55:06 64° WSW 22:55:06 64° WSW
SEDSat Delta rocket 2.9 22:52:22 10° WNW 22:57:09 79° N 22:57:09 79° N
Meteor 1-13 Rocket 4.1 22:53:16 10° N 22:58:56 88° E 23:04:34 10° S
ATLAS 3B R/B 4.1 22:59:41 10° SW 23:05:35 33° WNW 23:11:17 10° N
Cosmos 1727 Rocket 3.9 23:05:20 60° NE 23:06:02 64° E 23:12:20 10° SSE
ATLAS 3B CENTAUR R/B 3.5 22:54:43 10° WNW 23:09:46 72° SSW 23:12:56 41° SE
GPS 2-04 Rocket1 4.5 23:06:59 10° SW 23:08:41 24° SW 23:08:41 24° SW
H-10 deb 4.3 23:06:37 10° NW 23:10:12 30° NNE 23:10:12 30° NNE
Skynet4D Del rocket 4.5 23:04:20 10° WSW 23:12:46 76° NNW 23:14:35 57° NE
CZ-2C R/B 4.2 23:16:33 57° WSW 23:16:33 57° WSW 23:20:23 10° SSW
Cosmos 1605 Rocket 4.0 23:17:06 10° S 23:22:51 73° SSE 23:22:51 73° SSE
Atlas Centaur 2 3.8 23:48:58 10° W 23:52:57 29° SW 23:52:57 29° SW
